Time,TemperatureF,DewpointF,PressureIn,WindDirection,WindDirectionDegrees,WindSpeedMPH,WindSpeedGustMPH,Humidity,HourlyPrecipIn,Conditions,Clouds,dailyrainin,SoftwareType,DateUTC
2013-01-11 00:00:00,23.3,6.9,29.35,SSW,208,0.0,0.0,49,0.00,,,0.00,Wunderground v.1.15,2013-01-11 07:00:00,
2013-01-11 00:10:00,23.2,6.4,29.35,WSW,254,0.0,0.0,48,0.00,,,0.00,Wunderground v.1.15,2013-01-11 07:10:00,
2013-01-11 00:15:00,22.9,6.6,29.35,WSW,254,0.0,0.0,49,0.00,,,0.00,Wunderground v.1.15,2013-01-11 07:15:00,
2013-01-11 00:25:00,22.4,6.5,29.35,WSW,254,0.0,0.0,50,0.00,,,0.00,Wunderground v.1.15,2013-01-11 07:25:00,
2013-01-11 00:30:00,21.6,6.2,29.34,WSW,254,0.0,0.0,51,0.00,,,0.00,Wunderground v.1.15,2013-01-11 07:30:00,
2013-01-11 00:40:00,21.1,5.3,29.34,SW,215,0.0,0.0,50,0.00,,,0.00,Wunderground v.1.15,2013-01-11 07:40:00,
2013-01-11 00:45:00,20.5,5.2,29.36,WNW,282,0.0,0.0,51,0.00,,,0.00,Wunderground v.1.15,2013-01-11 07:45:00,
2013-01-11 00:55:00,21.1,5.8,29.36,SW,229,0.0,0.0,51,0.00,,,0.00,Wunderground v.1.15,2013-01-11 07:55:00,
2013-01-11 01:00:00,21.4,6.0,29.35,South,184,0.0,0.0,51,0.00,,,0.00,Wunderground v.1.15,2013-01-11 08:00:00,
2013-01-11 01:10:00,21.8,5.5,29.35,South,185,0.0,0.0,49,0.00,,,0.00,Wunderground v.1.15,2013-01-11 08:10:00,
2013-01-11 01:15:00,21.6,5.4,29.31,South,185,0.0,0.0,49,0.00,,,0.00,Wunderground v.1.15,2013-01-11 08:15:00,
2013-01-11 01:25:00,21.6,5.4,29.31,South,185,0.0,0.0,49,0.00,,,0.00,Wunderground v.1.15,2013-01-11 08:25:00,
2013-01-11 01:30:00,21.3,5.1,29.28,SE,138,0.0,0.0,49,0.00,,,0.00,Wunderground v.1.15,2013-01-11 08:30:00,
2013-01-11 01:40:00,21.3,5.1,29.28,SW,232,0.0,0.0,49,0.00,,,0.00,Wunderground v.1.15,2013-01-11 08:40:00,
2013-01-11 01:45:00,21.4,4.3,29.29,North,357,0.0,0.0,47,0.00,,,0.00,Wunderground v.1.15,2013-01-11 08:45:00,
2013-01-11 01:55:00,21.0,4.8,29.29,SW,222,0.0,0.0,49,0.00,,,0.00,Wunderground v.1.15,2013-01-11 08:55:00,
2013-01-11 02:00:00,21.0,4.4,29.28,SW,222,0.0,0.0,48,0.00,,,0.00,Wunderground v.1.15,2013-01-11 09:00:00,
2013-01-11 02:10:00,20.6,4.4,29.28,SW,222,0.0,0.0,49,0.00,,,0.00,Wunderground v.1.15,2013-01-11 09:10:00,
2013-01-11 02:15:00,20.5,3.9,29.28,SW,222,0.0,0.0,48,0.00,,,0.00,Wunderground v.1.15,2013-01-11 09:15:00,
2013-01-11 02:25:00,20.3,4.2,29.28,SW,222,0.0,0.0,49,0.00,,,0.00,Wunderground v.1.15,2013-01-11 09:25:00,
2013-01-11 02:30:00,19.4,4.2,29.29,SW,226,0.0,0.0,51,0.00,,,0.00,Wunderground v.1.15,2013-01-11 09:30:00,
2013-01-11 02:40:00,21.1,3.5,29.29,SW,226,0.0,0.0,46,0.00,,,0.00,Wunderground v.1.15,2013-01-11 09:40:00,
2013-01-11 02:50:00,25.0,2.3,29.27,South,189,0.0,0.0,37,0.00,,,0.00,Wunderground v.1.15,2013-01-11 09:50:00,
2013-01-11 02:55:00,26.1,2.1,29.27,NE,54,0.0,0.0,35,0.00,,,0.00,Wunderground v.1.15,2013-01-11 09:55:00,
2013-01-11 03:00:00,27.6,1.5,29.21,WSW,250,0.0,0.0,32,0.00,,,0.00,Wunderground v.1.15,2013-01-11 10:00:00,
2013-01-11 03:10:00,31.6,2.2,29.21,WSW,248,0.0,0.0,28,0.00,,,0.00,Wunderground v.1.15,2013-01-11 10:10:00,
2013-01-11 03:15:00,32.4,2.9,29.17,SE,130,0.0,0.0,28,0.00,,,0.00,Wunderground v.1.15,2013-01-11 10:15:00,
2013-01-11 03:25:00,33.8,3.3,29.17,WSW,253,1.0,3.0,27,0.00,,,0.00,Wunderground v.1.15,2013-01-11 10:25:00,
2013-01-11 03:30:00,33.7,4.0,29.15,WSW,253,0.0,0.0,28,0.00,,,0.00,Wunderground v.1.15,2013-01-11 10:30:00,
2013-01-11 03:40:00,33.2,4.3,29.15,NW,304,0.0,1.0,29,0.00,,,0.00,Wunderground v.1.15,2013-01-11 10:40:00,
2013-01-11 03:45:00,31.2,6.0,29.15,NNW,347,0.0,1.0,34,0.00,,,0.00,Wunderground v.1.15,2013-01-11 10:45:00,
2013-01-11 03:55:00,27.0,7.4,29.15,West,281,0.0,7.0,43,0.00,,,0.00,Wunderground v.1.15,2013-01-11 10:55:00,
2013-01-11 04:00:00,28.4,8.2,29.18,West,270,0.0,0.0,42,0.00,,,0.00,Wunderground v.1.15,2013-01-11 11:00:00,
2013-01-11 04:10:00,29.4,8.6,29.18,NW,312,0.0,3.0,41,0.00,,,0.00,Wunderground v.1.15,2013-01-11 11:10:00,
2013-01-11 04:15:00,30.4,8.9,29.16,West,260,0.0,3.0,40,0.00,,,0.00,Wunderground v.1.15,2013-01-11 11:15:00,
2013-01-11 04:20:00,31.5,9.9,29.16,WNW,292,1.0,5.0,40,0.00,,,0.00,Wunderground v.1.15,2013-01-11 11:20:00,
2013-01-11 04:25:00,31.9,10.3,29.16,SW,215,1.0,5.0,40,0.00,,,0.00,Wunderground v.1.15,2013-01-11 11:25:00,
2013-01-11 04:35:00,32.1,9.3,29.16,SSW,192,2.0,12.0,38,0.00,,,0.00,Wunderground v.1.15,2013-01-11 11:35:00,
2013-01-11 04:45:00,32.1,9.3,29.15,NNW,339,1.0,2.0,38,0.00,,,0.00,Wunderground v.1.15,2013-01-11 11:45:00,
2013-01-11 04:55:00,31.5,12.1,29.15,WNW,291,1.0,1.0,44,0.00,,,0.00,Wunderground v.1.15,2013-01-11 11:55:00,
2013-01-11 05:00:00,31.0,13.1,29.15,SSW,200,1.0,1.0,47,0.00,,,0.00,Wunderground v.1.15,2013-01-11 12:00:00,
2013-01-11 05:10:00,30.1,14.6,29.15,North,0,1.0,1.0,52,0.00,,,0.00,Wunderground v.1.15,2013-01-11 12:10:00,
2013-01-11 05:15:00,29.7,14.6,29.15,West,277,2.0,2.0,53,0.00,,,0.00,Wunderground v.1.15,2013-01-11 12:15:00,
2013-01-11 05:25:00,29.3,15.1,29.15,NW,305,1.0,2.0,55,0.00,,,0.00,Wunderground v.1.15,2013-01-11 12:25:00,
2013-01-11 05:35:00,29.0,14.8,29.22,WNW,289,0.0,1.0,55,0.00,,,0.00,Wunderground v.1.15,2013-01-11 12:35:00,
2013-01-11 05:40:00,28.8,15.5,29.22,South,186,1.0,1.0,57,0.00,,,0.00,Wunderground v.1.15,2013-01-11 12:40:00,
2013-01-11 05:45:00,28.5,16.0,29.21,WNW,295,2.0,2.0,59,0.00,,,0.00,Wunderground v.1.15,2013-01-11 12:45:00,
2013-01-11 05:55:00,27.9,17.3,29.21,SW,217,1.0,2.0,64,0.00,,,0.00,Wunderground v.1.15,2013-01-11 12:55:00,
2013-01-11 06:00:00,27.6,17.7,29.21,WNW,291,1.0,1.0,66,0.00,,,0.00,Wunderground v.1.15,2013-01-11 13:00:00,
2013-01-11 06:10:00,27.2,17.0,29.21,ESE,120,0.0,0.0,65,0.00,,,0.00,Wunderground v.1.15,2013-01-11 13:10:00,
2013-01-11 06:15:00,26.9,17.0,29.22,ESE,120,1.0,1.0,66,0.00,,,0.00,Wunderground v.1.15,2013-01-11 13:15:00,
2013-01-11 06:25:00,26.9,16.7,29.22,West,274,0.0,2.0,65,0.00,,,0.00,Wunderground v.1.15,2013-01-11 13:25:00,
2013-01-11 06:30:00,27.0,17.1,29.23,SSW,200,0.0,0.0,66,0.00,,,0.00,Wunderground v.1.15,2013-01-11 13:30:00,
2013-01-11 06:40:00,27.2,15.9,29.23,West,270,0.0,2.0,62,0.00,,,0.00,Wunderground v.1.15,2013-01-11 13:40:00,
2013-01-11 06:50:00,27.5,16.9,29.25,West,272,1.0,1.0,64,0.00,,,0.00,Wunderground v.1.15,2013-01-11 13:50:00,
2013-01-11 06:55:00,27.2,17.0,29.25,West,263,1.0,1.0,65,0.00,,,0.00,Wunderground v.1.15,2013-01-11 13:55:00,
2013-01-11 07:00:00,27.0,16.8,29.25,West,261,1.0,1.0,65,0.00,,,0.00,Wunderground v.1.15,2013-01-11 14:00:00,
2013-01-11 07:10:00,26.6,17.5,29.25,WSW,251,0.0,0.0,68,0.00,,,0.00,Wunderground v.1.15,2013-01-11 14:10:00,
2013-01-11 07:15:00,26.4,17.6,29.25,SW,224,0.0,0.0,69,0.00,,,0.00,Wunderground v.1.15,2013-01-11 14:15:00,
2013-01-11 07:25:00,26.3,17.5,29.25,WSW,251,0.0,0.0,69,0.00,,,0.00,Wunderground v.1.15,2013-01-11 14:25:00,
2013-01-11 07:30:00,26.1,17.6,29.26,WSW,251,0.0,0.0,70,0.00,,,0.00,Wunderground v.1.15,2013-01-11 14:30:00,
2013-01-11 07:40:00,26.1,18.9,29.26,West,263,0.0,0.0,74,0.00,,,0.00,Wunderground v.1.15,2013-01-11 14:40:00,
2013-01-11 07:45:00,25.8,19.3,29.27,West,263,0.0,0.0,76,0.00,,,0.00,Wunderground v.1.15,2013-01-11 14:45:00,
2013-01-11 07:55:00,24.8,17.1,29.27,SSW,205,1.0,1.0,72,0.00,,,0.00,Wunderground v.1.15,2013-01-11 14:55:00,
2013-01-11 08:00:00,24.2,17.1,29.29,West,265,1.0,1.0,74,0.00,,,0.00,Wunderground v.1.15,2013-01-11 15:00:00,
2013-01-11 08:10:00,24.4,15.7,29.29,SW,222,1.0,1.0,69,0.00,,,0.00,Wunderground v.1.15,2013-01-11 15:10:00,
2013-01-11 08:20:00,24.2,14.5,29.29,SSE,168,1.0,1.0,66,0.00,,,0.00,Wunderground v.1.15,2013-01-11 15:20:00,
2013-01-11 08:30:00,24.4,14.0,29.32,South,189,1.0,1.0,64,0.00,,,0.00,Wunderground v.1.15,2013-01-11 15:30:00,
2013-01-11 08:40:00,24.8,11.7,29.32,South,186,1.0,1.0,57,0.00,,,0.00,Wunderground v.1.15,2013-01-11 15:40:00,
2013-01-11 08:45:00,25.1,12.0,29.29,WNW,288,2.0,2.0,57,0.00,,,0.00,Wunderground v.1.15,2013-01-11 15:45:00,
2013-01-11 08:55:00,25.1,12.8,29.29,SW,224,3.0,3.0,59,0.00,,,0.00,Wunderground v.1.15,2013-01-11 15:55:00,
2013-01-11 09:00:00,24.7,14.6,29.29,North,0,3.0,17.0,65,0.00,,,0.00,Wunderground v.1.15,2013-01-11 16:00:00,
2013-01-11 09:10:00,21.8,12.5,29.29,WNW,295,9.0,9.0,67,0.00,,,0.00,Wunderground v.1.15,2013-01-11 16:10:00,
2013-01-11 09:20:00,21.1,11.2,29.32,SSW,193,7.0,16.0,65,0.00,,,0.00,Wunderground v.1.15,2013-01-11 16:20:00,
2013-01-11 09:25:00,20.8,10.9,29.32,West,272,6.0,16.0,65,0.00,,,0.00,Wunderground v.1.15,2013-01-11 16:25:00,
2013-01-11 09:30:00,20.3,9.3,29.35,WNW,301,6.0,10.0,62,0.00,,,0.00,Wunderground v.1.15,2013-01-11 16:30:00,
2013-01-11 09:40:00,20.5,5.6,29.35,West,280,13.0,22.0,52,0.00,,,0.00,Wunderground v.1.15,2013-01-11 16:40:00,
2013-01-11 09:45:00,20.3,4.6,29.36,WNW,298,12.0,22.0,50,0.00,,,0.00,Wunderground v.1.15,2013-01-11 16:45:00,
2013-01-11 09:55:00,20.5,3.0,29.36,WNW,291,13.0,27.0,46,0.00,,,0.00,Wunderground v.1.15,2013-01-11 16:55:00,
2013-01-11 10:00:00,20.5,3.0,29.38,South,169,10.0,10.0,46,0.00,,,0.00,Wunderground v.1.15,2013-01-11 17:00:00,
2013-01-11 10:10:00,20.6,0.6,29.38,West,275,10.0,24.0,41,0.00,,,0.00,Wunderground v.1.15,2013-01-11 17:10:00,
2013-01-11 10:15:00,20.8,0.2,29.37,SW,233,12.0,24.0,40,0.00,,,0.00,Wunderground v.1.15,2013-01-11 17:15:00,
2013-01-11 10:25:00,21.3,-4.0,29.37,WNW,294,11.0,25.0,32,0.00,,,0.00,Wunderground v.1.15,2013-01-11 17:25:00,
2013-01-11 10:30:00,21.4,-3.9,29.38,NNW,335,13.0,13.0,32,0.00,,,0.00,Wunderground v.1.15,2013-01-11 17:30:00,
2013-01-11 10:40:00,21.8,-6.4,29.38,SSW,206,11.0,13.0,28,0.00,,,0.00,Wunderground v.1.15,2013-01-11 17:40:00,
2013-01-11 10:45:00,21.8,-6.4,29.38,North,356,11.0,13.0,28,0.00,,,0.00,Wunderground v.1.15,2013-01-11 17:45:00,
2013-01-11 10:55:00,21.8,-4.9,29.38,WNW,291,12.0,32.0,30,0.00,,,0.00,Wunderground v.1.15,2013-01-11 17:55:00,
2013-01-11 11:00:00,21.8,-5.6,29.37,SSE,165,11.0,11.0,29,0.00,,,0.00,Wunderground v.1.15,2013-01-11 18:00:00,
2013-01-11 11:10:00,22.1,-5.4,29.37,SE,137,10.0,15.0,29,0.00,,,0.00,Wunderground v.1.15,2013-01-11 18:10:00,
2013-01-11 11:15:00,22.2,-4.6,29.37,WNW,289,10.0,15.0,30,0.00,,,0.00,Wunderground v.1.15,2013-01-11 18:15:00,
2013-01-11 11:25:00,22.1,-6.1,29.37,WNW,301,13.0,18.0,28,0.00,,,0.00,Wunderground v.1.15,2013-01-11 18:25:00,
2013-01-11 11:35:00,22.2,-8.4,29.36,NNW,329,13.0,13.0,25,0.00,,,0.00,Wunderground v.1.15,2013-01-11 18:35:00,
2013-01-11 11:40:00,22.5,-8.9,29.36,WNW,302,12.0,13.0,24,0.00,,,0.00,Wunderground v.1.15,2013-01-11 18:40:00,
2013-01-11 11:45:00,22.4,-8.2,29.33,NW,304,13.0,31.0,25,0.00,,,0.00,Wunderground v.1.15,2013-01-11 18:45:00,
2013-01-11 11:55:00,22.1,-8.4,29.33,West,280,13.0,31.0,25,0.00,,,0.00,Wunderground v.1.15,2013-01-11 18:55:00,
2013-01-11 12:00:00,21.8,-8.7,29.35,WNW,301,13.0,45.0,25,0.00,,,0.00,Wunderground v.1.15,2013-01-11 19:00:00,
2013-01-11 12:10:00,21.0,-7.8,29.35,West,267,13.0,18.0,27,0.00,,,0.00,Wunderground v.1.15,2013-01-11 19:10:00,
2013-01-11 12:15:00,20.6,-7.4,29.34,West,272,14.0,22.0,28,0.00,,,0.00,Wunderground v.1.15,2013-01-11 19:15:00,
2013-01-11 12:20:00,20.6,-7.4,29.34,NW,322,14.0,14.0,28,0.00,,,0.00,Wunderground v.1.15,2013-01-11 19:20:00,
2013-01-11 12:30:00,20.6,-6.0,29.38,SE,141,11.0,11.0,30,0.00,,,0.00,Wunderground v.1.15,2013-01-11 19:30:00,
2013-01-11 12:40:00,20.3,-4.3,29.38,West,270,12.0,12.0,33,0.00,,,0.00,Wunderground v.1.15,2013-01-11 19:40:00,
2013-01-11 12:50:00,20.2,-3.1,29.38,WSW,237,9.0,9.0,35,0.00,,,0.00,Wunderground v.1.15,2013-01-11 19:50:00,
2013-01-11 12:55:00,19.7,0.8,29.38,WNW,282,8.0,21.0,43,0.00,,,0.00,Wunderground v.1.15,2013-01-11 19:55:00,
2013-01-11 13:00:00,18.6,4.7,29.38,SSW,195,11.0,21.0,54,0.00,,,0.00,Wunderground v.1.15,2013-01-11 20:00:00,
2013-01-11 13:10:00,17.0,4.7,29.38,SSE,150,8.0,8.0,58,0.00,,,0.00,Wunderground v.1.15,2013-01-11 20:10:00,
2013-01-11 13:15:00,16.5,5.4,29.42,NW,309,8.0,8.0,61,0.00,,,0.00,Wunderground v.1.15,2013-01-11 20:15:00,
2013-01-11 13:25:00,15.7,3.9,29.42,SW,229,9.0,12.0,59,0.00,,,0.00,Wunderground v.1.15,2013-01-11 20:25:00,
2013-01-11 13:35:00,17.0,1.5,29.46,WNW,296,10.0,16.0,50,0.00,,,0.00,Wunderground v.1.15,2013-01-11 20:35:00,
2013-01-11 13:40:00,17.7,-1.0,29.46,WSW,243,10.0,10.0,43,0.00,,,0.00,Wunderground v.1.15,2013-01-11 20:40:00,
2013-01-11 13:45:00,18.3,-2.0,29.42,North,359,9.0,10.0,40,0.00,,,0.00,Wunderground v.1.15,2013-01-11 20:45:00,
2013-01-11 13:55:00,18.6,-6.4,29.42,WSW,248,12.0,26.0,32,0.00,,,0.00,Wunderground v.1.15,2013-01-11 20:55:00,
2013-01-11 14:00:00,18.8,-6.9,29.44,WNW,302,12.0,18.0,31,0.00,,,0.00,Wunderground v.1.15,2013-01-11 21:00:00,
2013-01-11 14:10:00,19.1,-6.6,29.44,SW,229,10.0,10.0,31,0.00,,,0.00,Wunderground v.1.15,2013-01-11 21:10:00,
2013-01-11 14:15:00,19.5,-7.7,29.44,SSE,154,8.0,10.0,29,0.00,,,0.00,Wunderground v.1.15,2013-01-11 21:15:00,
2013-01-11 14:25:00,18.6,-3.4,29.44,WNW,285,9.0,14.0,37,0.00,,,0.00,Wunderground v.1.15,2013-01-11 21:25:00,
2013-01-11 14:30:00,18.4,-4.7,29.38,WNW,299,10.0,10.0,35,0.00,,,0.00,Wunderground v.1.15,2013-01-11 21:30:00,
2013-01-11 14:40:00,18.6,-7.1,29.38,West,281,7.0,13.0,31,0.00,,,0.00,Wunderground v.1.15,2013-01-11 21:40:00,
2013-01-11 14:50:00,18.6,-3.4,29.37,NNW,330,7.0,7.0,37,0.00,,,0.00,Wunderground v.1.15,2013-01-11 21:50:00,
2013-01-11 14:55:00,18.3,1.4,29.37,NW,319,6.0,7.0,47,0.00,,,0.00,Wunderground v.1.15,2013-01-11 21:55:00,
2013-01-11 15:00:00,16.5,4.7,29.40,WNW,295,6.0,6.0,59,0.00,,,0.00,Wunderground v.1.15,2013-01-11 22:00:00,
2013-01-11 15:10:00,16.1,3.5,29.40,WSW,239,8.0,8.0,57,0.00,,,0.00,Wunderground v.1.15,2013-01-11 22:10:00,
2013-01-11 15:15:00,16.1,3.9,29.43,WNW,287,7.0,17.0,58,0.00,,,0.00,Wunderground v.1.15,2013-01-11 22:15:00,
2013-01-11 15:25:00,15.4,4.3,29.43,WNW,288,7.0,7.0,61,0.00,,,0.00,Wunderground v.1.15,2013-01-11 22:25:00,
2013-01-11 15:30:00,15.2,3.4,29.47,NW,313,8.0,8.0,59,0.00,,,0.00,Wunderground v.1.15,2013-01-11 22:30:00,
2013-01-11 15:35:00,15.1,4.8,29.47,West,277,8.0,8.0,63,0.00,,,0.00,Wunderground v.1.15,2013-01-11 22:35:00,
2013-01-11 15:45:00,15.1,3.0,29.48,South,178,6.0,8.0,58,0.00,,,0.00,Wunderground v.1.15,2013-01-11 22:45:00,
2013-01-11 15:55:00,15.4,1.7,29.48,WNW,289,7.0,7.0,54,0.00,,,0.00,Wunderground v.1.15,2013-01-11 22:55:00,
2013-01-11 16:00:00,15.2,3.1,29.50,NW,316,7.0,9.0,58,0.00,,,0.00,Wunderground v.1.15,2013-01-11 23:00:00,
2013-01-11 16:10:00,14.3,3.3,29.50,West,263,5.0,5.0,61,0.00,,,0.00,Wunderground v.1.15,2013-01-11 23:10:00,
2013-01-11 16:15:00,14.3,-0.6,29.51,WSW,250,5.0,5.0,51,0.00,,,0.00,Wunderground v.1.15,2013-01-11 23:15:00,
2013-01-11 16:25:00,14.6,-2.5,29.51,North,4,4.0,11.0,46,0.00,,,0.00,Wunderground v.1.15,2013-01-11 23:25:00,
2013-01-11 16:30:00,14.6,-2.0,29.52,NW,322,4.0,4.0,47,0.00,,,0.00,Wunderground v.1.15,2013-01-11 23:30:00,
2013-01-11 16:40:00,14.4,-2.6,29.52,SW,223,4.0,12.0,46,0.00,,,0.00,Wunderground v.1.15,2013-01-11 23:40:00,
2013-01-11 16:45:00,14.3,-3.7,29.53,West,271,4.0,12.0,44,0.00,,,0.00,Wunderground v.1.15,2013-01-11 23:45:00,
2013-01-11 16:50:00,14.1,-4.8,29.53,SSW,196,3.0,11.0,42,0.00,,,0.00,Wunderground v.1.15,2013-01-11 23:50:00,
2013-01-11 17:00:00,14.0,-7.5,29.55,West,277,4.0,4.0,37,0.00,,,0.00,Wunderground v.1.15,2013-01-12 00:00:00,
2013-01-11 17:10:00,13.6,-8.5,29.55,WNW,288,5.0,5.0,36,0.00,,,0.00,Wunderground v.1.15,2013-01-12 00:10:00,
2013-01-11 17:15:00,13.5,-7.4,29.56,West,280,4.0,12.0,38,0.00,,,0.00,Wunderground v.1.15,2013-01-12 00:15:00,
2013-01-11 17:25:00,13.3,-7.6,29.56,WNW,295,4.0,4.0,38,0.00,,,0.00,Wunderground v.1.15,2013-01-12 00:25:00,
2013-01-11 17:30:00,13.1,-7.8,29.60,South,181,4.0,4.0,38,0.00,,,0.00,Wunderground v.1.15,2013-01-12 00:30:00,
2013-01-11 17:40:00,12.8,-7.5,29.60,West,281,6.0,7.0,39,0.00,,,0.00,Wunderground v.1.15,2013-01-12 00:40:00,
2013-01-11 17:45:00,12.8,-7.0,29.62,WNW,289,4.0,7.0,40,0.00,,,0.00,Wunderground v.1.15,2013-01-12 00:45:00,
2013-01-11 17:55:00,12.6,-8.3,29.62,WNW,285,7.0,12.0,38,0.00,,,0.00,Wunderground v.1.15,2013-01-12 00:55:00,
2013-01-11 18:00:00,12.4,-8.4,29.64,South,171,5.0,5.0,38,0.00,,,0.00,Wunderground v.1.15,2013-01-12 01:00:00,
2013-01-11 18:10:00,12.3,-9.1,29.64,South,188,6.0,16.0,37,0.00,,,0.00,Wunderground v.1.15,2013-01-12 01:10:00,
2013-01-11 18:15:00,12.3,-9.1,29.67,West,278,8.0,16.0,37,0.00,,,0.00,Wunderground v.1.15,2013-01-12 01:15:00,
2013-01-11 18:25:00,11.9,-9.4,29.67,West,281,4.0,6.0,37,0.00,,,0.00,Wunderground v.1.15,2013-01-12 01:25:00,
2013-01-11 18:35:00,11.6,-10.3,29.67,SSW,200,6.0,7.0,36,0.00,,,0.00,Wunderground v.1.15,2013-01-12 01:35:00,
2013-01-11 18:40:00,11.4,-9.9,29.67,SSW,196,5.0,5.0,37,0.00,,,0.00,Wunderground v.1.15,2013-01-12 01:40:00,
2013-01-11 18:45:00,11.4,-9.9,29.68,SSE,152,5.0,5.0,37,0.00,,,0.00,Wunderground v.1.15,2013-01-12 01:45:00,
2013-01-11 18:55:00,11.1,-9.1,29.68,WNW,291,5.0,7.0,39,0.00,,,0.00,Wunderground v.1.15,2013-01-12 01:55:00,
2013-01-11 19:00:00,11.1,-9.1,29.69,West,281,5.0,8.0,39,0.00,,,0.00,Wunderground v.1.15,2013-01-12 02:00:00,
2013-01-11 19:10:00,10.9,-9.3,29.69,WNW,299,6.0,10.0,39,0.00,,,0.00,Wunderground v.1.15,2013-01-12 02:10:00,
2013-01-11 19:15:00,10.9,-9.8,29.69,WNW,294,7.0,12.0,38,0.00,,,0.00,Wunderground v.1.15,2013-01-12 02:15:00,
2013-01-11 19:25:00,10.9,-9.8,29.69,SW,216,5.0,6.0,38,0.00,,,0.00,Wunderground v.1.15,2013-01-12 02:25:00,
2013-01-11 19:30:00,10.9,-10.3,29.73,SSW,202,6.0,6.0,37,0.00,,,0.00,Wunderground v.1.15,2013-01-12 02:30:00,
2013-01-11 19:40:00,11.1,-11.3,29.73,NW,311,6.0,14.0,35,0.00,,,0.00,Wunderground v.1.15,2013-01-12 02:40:00,
2013-01-11 19:45:00,11.1,-10.1,29.74,South,184,7.0,14.0,37,0.00,,,0.00,Wunderground v.1.15,2013-01-12 02:45:00,
2013-01-11 19:55:00,11.1,-9.6,29.74,WNW,282,6.0,7.0,38,0.00,,,0.00,Wunderground v.1.15,2013-01-12 02:55:00,
2013-01-11 20:05:00,10.7,-9.4,29.75,SSE,165,7.0,7.0,39,0.00,,,0.00,Wunderground v.1.15,2013-01-12 03:05:00,
2013-01-11 20:10:00,10.7,-9.4,29.75,NNW,339,7.0,7.0,39,0.00,,,0.00,Wunderground v.1.15,2013-01-12 03:10:00,
2013-01-11 20:15:00,10.7,-10.5,29.76,West,270,8.0,8.0,37,0.00,,,0.00,Wunderground v.1.15,2013-01-12 03:15:00,
2013-01-11 20:25:00,10.5,-11.2,29.76,SW,236,8.0,8.0,36,0.00,,,0.00,Wunderground v.1.15,2013-01-12 03:25:00,
2013-01-11 20:30:00,10.5,-11.2,29.78,WNW,287,8.0,8.0,36,0.00,,,0.00,Wunderground v.1.15,2013-01-12 03:30:00,
2013-01-11 20:50:00,10.4,-11.3,29.78,WNW,287,8.0,16.0,36,0.00,,,0.00,Wunderground v.1.15,2013-01-12 03:50:00,
2013-01-11 20:55:00,10.2,-11.5,29.78,South,191,9.0,16.0,36,0.00,,,0.00,Wunderground v.1.15,2013-01-12 03:55:00,
2013-01-11 21:00:00,10.2,-11.5,29.78,SSE,151,8.0,8.0,36,0.00,,,0.00,Wunderground v.1.15,2013-01-12 04:00:00,
2013-01-11 21:10:00,10.0,-11.1,29.78,SE,145,7.0,7.0,37,0.00,,,0.00,Wunderground v.1.15,2013-01-12 04:10:00,
2013-01-11 21:15:00,10.0,-11.7,29.79,WNW,284,5.0,7.0,36,0.00,,,0.00,Wunderground v.1.15,2013-01-12 04:15:00,
2013-01-11 21:25:00,9.9,-11.8,29.79,WNW,284,4.0,6.0,36,0.00,,,0.00,Wunderground v.1.15,2013-01-12 04:25:00,
2013-01-11 21:30:00,10.0,-12.3,29.80,West,268,8.0,8.0,35,0.00,,,0.00,Wunderground v.1.15,2013-01-12 04:30:00,
2013-01-11 21:40:00,9.9,-11.8,29.80,SW,233,4.0,4.0,36,0.00,,,0.00,Wunderground v.1.15,2013-01-12 04:40:00,
2013-01-11 21:45:00,9.9,-12.3,29.80,NNW,332,4.0,6.0,35,0.00,,,0.00,Wunderground v.1.15,2013-01-12 04:45:00,
2013-01-11 21:55:00,10.0,-12.3,29.80,SSW,212,5.0,6.0,35,0.00,,,0.00,Wunderground v.1.15,2013-01-12 04:55:00,
2013-01-11 22:00:00,10.0,-12.8,29.80,NW,311,6.0,10.0,34,0.00,,,0.00,Wunderground v.1.15,2013-01-12 05:00:00,
2013-01-11 22:05:00,10.0,-12.3,29.80,SSE,147,7.0,10.0,35,0.00,,,0.00,Wunderground v.1.15,2013-01-12 05:05:00,
2013-01-11 22:10:00,10.0,-13.4,29.80,SW,217,5.0,5.0,33,0.00,,,0.00,Wunderground v.1.15,2013-01-12 05:10:00,
2013-01-11 22:15:00,10.0,-12.8,29.80,WNW,298,6.0,14.0,34,0.00,,,0.00,Wunderground v.1.15,2013-01-12 05:15:00,
2013-01-11 22:25:00,10.0,-13.4,29.80,WNW,294,6.0,8.0,33,0.00,,,0.00,Wunderground v.1.15,2013-01-12 05:25:00,
2013-01-11 22:30:00,10.0,-12.8,29.78,West,265,5.0,5.0,34,0.00,,,0.00,Wunderground v.1.15,2013-01-12 05:30:00,
2013-01-11 22:35:00,10.0,-13.4,29.78,SW,223,5.0,6.0,33,0.00,,,0.00,Wunderground v.1.15,2013-01-12 05:35:00,
2013-01-11 22:45:00,9.9,-13.5,29.80,NW,316,6.0,10.0,33,0.00,,,0.00,Wunderground v.1.15,2013-01-12 05:45:00,
2013-01-11 22:55:00,10.0,-12.8,29.80,South,178,8.0,8.0,34,0.00,,,0.00,Wunderground v.1.15,2013-01-12 05:55:00,
2013-01-11 23:00:00,9.9,-12.9,29.80,NW,319,9.0,11.0,34,0.00,,,0.00,Wunderground v.1.15,2013-01-12 06:00:00,
2013-01-11 23:10:00,9.7,-12.5,29.80,WNW,282,5.0,11.0,35,0.00,,,0.00,Wunderground v.1.15,2013-01-12 06:10:00,
2013-01-11 23:15:00,9.5,-13.3,29.81,WSW,243,6.0,11.0,34,0.00,,,0.00,Wunderground v.1.15,2013-01-12 06:15:00,
2013-01-11 23:25:00,9.5,-12.7,29.81,WNW,288,6.0,13.0,35,0.00,,,0.00,Wunderground v.1.15,2013-01-12 06:25:00,
2013-01-11 23:30:00,9.5,-12.7,29.84,WNW,296,8.0,8.0,35,0.00,,,0.00,Wunderground v.1.15,2013-01-12 06:30:00,
2013-01-11 23:40:00,9.3,-12.9,29.84,ESE,110,5.0,5.0,35,0.00,,,0.00,Wunderground v.1.15,2013-01-12 06:40:00,
2013-01-11 23:45:00,9.2,-13.0,29.84,South,169,4.0,6.0,35,0.00,,,0.00,Wunderground v.1.15,2013-01-12 06:45:00,
2013-01-11 23:55:00,9.2,-13.0,29.84,WNW,284,4.0,5.0,35,0.00,,,0.00,Wunderground v.1.15,2013-01-12 06:55:00,